Total_Precipitation_Accumulation
0.04 0.05 0.13 0.12 0.07 0.06 0.07 0.11 0.15 0.15 0.15 0.17 0.17 0.14 0.11 0.08 0.06 0.04 0.04 0.03 0.03 0.04 0.04 0.06 0.08 0.09 0.09 0.11 0.15 0.18 0.22 0.25 0.38 0.49 0.65 0.71 0.77 0.88 1.10 1.20 1.29 1.11 0.97
0.01 0.03 0.11 0.15 0.11 0.08 0.08 0.10 0.14 0.14 0.15 0.16 0.16 0.16 0.14 0.10 0.07 0.05 0.05 0.04 0.04 0.05 0.05 0.05 0.06 0.06 0.06 0.07 0.11 0.16 0.21 0.31 0.56 0.75 0.89 0.83 0.89 1.07 1.22 1.20 1.28 1.06 0.83
0.01 0.02 0.08 0.13 0.13 0.11 0.10 0.11 0.14 0.15 0.15 0.14 0.14 0.14 0.13 0.10 0.07 0.06 0.05 0.05 0.05 0.05 0.04 0.04 0.05 0.04 0.06 0.07 0.11 0.15 0.20 0.36 0.69 1.06 1.29 1.23 0.87 1.07 1.24 1.25 1.17 0.82 0.60
0.02 0.02 0.03 0.09 0.12 0.11 0.11 0.12 0.13 0.13 0.12 0.11 0.11 0.11 0.10 0.08 0.06 0.05 0.06 0.06 0.07 0.06 0.06 0.06 0.05 0.06 0.07 0.07 0.11 0.17 0.26 0.39 0.64 1.02 1.45 1.16 0.80 0.74 0.92 0.88 0.78 0.63 0.46
0.06 0.04 0.04 0.07 0.09 0.11 0.13 0.13 0.12 0.12 0.11 0.10 0.09 0.10 0.08 0.07 0.06 0.06 0.06 0.07 0.09 0.10 0.11 0.08 0.07 0.08 0.08 0.08 0.12 0.19 0.31 0.45 0.64 0.93 1.02 1.19 1.16 0.75 0.66 0.64 0.66 0.54 0.38
0.10 0.06 0.06 0.09 0.09 0.11 0.12 0.12 0.12 0.11 0.11 0.11 0.10 0.10 0.09 0.08 0.08 0.07 0.07 0.08 0.11 0.13 0.13 0.12 0.11 0.10 0.08 0.08 0.12 0.18 0.31 0.49 0.74 0.64 0.55 0.84 0.87 0.66 0.62 0.62 0.60 0.51 0.35
0.13 0.07 0.07 0.13 0.13 0.13 0.13 0.15 0.14 0.12 0.11 0.11 0.11 0.11 0.11 0.10 0.10 0.10 0.09 0.10 0.11 0.13 0.13 0.13 0.14 0.12 0.10 0.09 0.12 0.20 0.34 0.53 0.71 0.57 0.47 0.62 0.62 0.55 0.61 0.65 0.63 0.54 0.38
0.17 0.10 0.11 0.17 0.19 0.18 0.18 0.19 0.18 0.15 0.14 0.14 0.13 0.14 0.14 0.12 0.13 0.14 0.14 0.15 0.15 0.15 0.15 0.15 0.16 0.16 0.14 0.13 0.16 0.22 0.32 0.42 0.49 0.50 0.49 0.58 0.43 0.57 0.65 0.59 0.58 0.56 0.46
0.25 0.18 0.15 0.17 0.18 0.19 0.23 0.25 0.23 0.20 0.18 0.17 0.17 0.17 0.16 0.14 0.16 0.17 0.20 0.22 0.21 0.21 0.19 0.20 0.20 0.21 0.21 0.19 0.20 0.26 0.34 0.48 0.55 0.64 0.60 0.59 0.45 0.62 0.85 0.72 0.55 0.49 0.48
0.47 0.34 0.26 0.24 0.28 0.24 0.23 0.25 0.26 0.23 0.22 0.21 0.20 0.20 0.21 0.25 0.30 0.35 0.35 0.33 0.33 0.33 0.34 0.36 0.36 0.38 0.38 0.34 0.34 0.39 0.45 0.47 0.57 0.89 0.82 0.60 0.55 0.75 0.98 1.04 0.85 0.68 0.54
0.73 0.56 0.48 0.42 0.33 0.35 0.34 0.31 0.39 0.38 0.39 0.41 0.46 0.43 0.42 0.48 0.62 0.73 0.64 0.63 0.64 0.65 0.69 0.75 0.76 0.78 0.73 0.59 0.56 0.62 0.57 0.48 0.85 1.16 0.96 0.70 0.73 0.98 1.21 1.35 1.20 1.06 0.90
0.83 0.67 0.67 0.63 0.50 0.48 0.49 0.67 0.86 0.80 0.87 0.83 0.96 0.87 0.91 0.95 0.83 0.67 0.76 0.89 1.01 1.20 1.28 1.35 1.40 1.37 1.23 1.02 1.02 0.98 0.60 0.58 0.87 0.99 0.89 0.78 0.85 1.10 1.38 1.54 1.44 1.26 1.13
1.02 0.92 0.70 0.76 0.67 0.70 0.82 0.98 1.14 1.19 1.20 1.17 1.22 1.23 1.35 1.31 1.11 1.00 1.16 1.40 1.55 1.71 1.81 2.04 2.04 1.68 1.65 1.69 1.69 1.43 1.11 0.93 0.99 1.06 0.78 0.85 0.96 1.20 1.50 1.61 1.52 1.42 1.29
1.25 1.25 1.10 1.13 1.05 1.03 1.05 1.08 1.10 1.04 1.06 1.16 1.26 1.35 1.50 1.50 1.52 1.49 1.55 1.63 1.77 1.98 2.23 2.31 2.30 2.14 2.27 2.22 1.96 1.81 1.57 1.31 1.50 1.63 1.17 1.11 1.22 1.45 1.63 1.65 1.54 1.48 1.47
1.87 1.81 1.71 1.69 1.48 1.26 1.12 1.03 0.93 0.89 0.85 0.94 1.05 1.11 1.21 1.45 1.60 1.60 1.44 1.44 1.47 1.70 2.04 2.35 2.38 2.59 2.67 2.45 2.04 1.79 1.76 1.67 1.72 1.67 1.38 1.41 1.59 1.63 1.61 1.59 1.55 1.53 1.56
2.82 2.54 2.36 2.25 1.78 1.52 1.32 1.13 1.01 0.84 0.85 0.87 0.84 0.92 1.09 1.24 1.40 1.37 1.35 1.41 1.45 1.46 1.61 1.99 2.24 2.46 2.39 2.15 1.73 1.59 1.54 1.60 1.55 1.52 1.34 1.37 1.50 1.39 1.38 1.53 1.66 1.71 1.72
3.81 3.24 2.74 2.47 2.12 1.82 1.64 1.35 1.10 0.94 0.84 0.85 0.79 0.82 0.89 0.98 1.11 1.13 1.14 1.13 1.19 1.20 1.22 1.36 1.59 1.77 1.72 1.63 1.52 1.53 1.52 1.47 1.35 1.32 1.36 1.31 1.22 1.27 1.29 1.34 1.43 1.56 1.71
4.75 4.02 3.25 2.63 2.53 2.33 2.04 1.52 1.11 0.91 0.77 0.68 0.63 0.60 0.62 0.65 0.68 0.70 0.71 0.69 0.72 0.69 0.73 0.86 0.97 1.09 1.20 1.32 1.40 1.38 1.40 1.40 1.30 1.30 1.28 1.24 1.23 1.09 1.23 1.28 1.27 1.31 1.47
5.07 4.72 3.84 3.53 3.29 2.59 1.86 1.28 0.95 0.75 0.60 0.51 0.53 0.47 0.45 0.45 0.45 0.50 0.50 0.50 0.45 0.42 0.44 0.46 0.58 0.70 0.81 0.91 0.92 1.00 0.97 0.92 0.89 0.86 0.91 0.83 0.97 0.96 1.02 1.09 1.15 1.14 1.28
4.11 3.91 3.52 3.34 2.79 2.02 1.39 1.02 0.74 0.56 0.42 0.35 0.36 0.36 0.33 0.35 0.36 0.41 0.39 0.37 0.33 0.32 0.36 0.41 0.48 0.49 0.51 0.55 0.50 0.56 0.59 0.52 0.53 0.49 0.47 0.53 0.62 0.63 0.70 0.85 0.88 0.79 1.01
2.56 2.51 2.51 2.39 1.98 1.42 1.02 0.69 0.52 0.43 0.33 0.25 0.22 0.22 0.23 0.26 0.31 0.39 0.32 0.35 0.33 0.29 0.29 0.31 0.35 0.36 0.33 0.32 0.37 0.38 0.32 0.30 0.30 0.25 0.26 0.32 0.41 0.49 0.60 0.76 0.79 0.78 0.74
1.68 1.75 1.76 1.74 1.42 0.99 0.75 0.56 0.48 0.41 0.28 0.21 0.17 0.16 0.13 0.14 0.19 0.26 0.34 0.28 0.28 0.29 0.28 0.27 0.30 0.29 0.26 0.27 0.34 0.37 0.33 0.34 0.31 0.17 0.24 0.28 0.32 0.46 0.55 0.62 0.69 0.75 0.67
1.51 1.46 1.31 1.27 1.14 0.87 0.70 0.53 0.45 0.38 0.30 0.22 0.20 0.16 0.13 0.11 0.13 0.17 0.24 0.26 0.29 0.26 0.30 0.35 0.32 0.30 0.24 0.21 0.27 0.35 0.34 0.33 0.34 0.30 0.28 0.28 0.32 0.45 0.52 0.60 0.62 0.66 0.69
1.02 1.09 1.09 1.07 1.05 0.81 0.63 0.45 0.34 0.26 0.23 0.18 0.18 0.16 0.13 0.12 0.11 0.10 0.11 0.16 0.24 0.27 0.35 0.27 0.30 0.32 0.28 0.22 0.22 0.24 0.24 0.26 0.30 0.33 0.32 0.28 0.32 0.38 0.40 0.41 0.46 0.57 0.60
0.59 0.73 0.86 1.04 1.14 0.87 0.65 0.49 0.39 0.31 0.25 0.19 0.17 0.18 0.15 0.15 0.15 0.14 0.12 0.12 0.13 0.19 0.27 0.30 0.36 0.33 0.34 0.30 0.23 0.21 0.21 0.19 0.20 0.19 0.25 0.28 0.26 0.21 0.22 0.28 0.34 0.47 0.49
0.47 0.52 0.61 0.80 0.97 0.86 0.68 0.52 0.47 0.45 0.37 0.28 0.22 0.20 0.21 0.23 0.24 0.22 0.20 0.21 0.21 0.19 0.18 0.20 0.24 0.31 0.36 0.37 0.29 0.23 0.25 0.23 0.17 0.15 0.12 0.14 0.21 0.15 0.16 0.19 0.27 0.37 0.41